Location: Ku?niki
(51.4449°N, 17.8974°E)
Time: 10:35:42
(UTC+00:00)

Cosmos 2297 Rocket - Pass Details

Date: 18 September 2020
Orbit: 838 x 845 km, 71.0° (Epoch: 25 October)

Event Time Altitude Azimuth Distance (km) Brightness Sun altitude
Rises 17:18:58 0° 239° (WSW) 3,389 6.3 -4.5°
Reaches altitude 10° 17:21:37 10° 249° (WSW) 2,459 5.7 -4.9°
Maximum altitude 17:26:46 35° 314° (NW) 1,337 3.9 -5.7°
Drops below altitude 10° 17:31:57 10° 20° (NNE) 2,475 4.6 -6.5°
Sets 17:34:38 0° 29° (NNE) 3,414 5.2 -6.9°
